LVJAM ZZZZ-SADF

Flight info

Callsign LVJAM
Flight time N/A
Altitude 1500
Route DCT TRINI
Aircraft C182/L-SDE3/L

Departure

Time N/A
Airport ZZZZ

Arrival

Time 2026-05-06 20:07
Airport San Fernando Airport (SADF)
Time Latitude Longitude Altitude Speed Heading
2026-05-06 19:50 -34.68072 -59.03472 95 ft 0 kts 67°
2026-05-06 19:53 -34.68070 -59.03468 95 ft 2 kts 48°
2026-05-06 19:53 -34.67928 -59.03533 95 ft 48 kts 337°
2026-05-06 19:53 -34.67483 -59.03731 180 ft 73 kts 349°
2026-05-06 19:54 -34.66940 -59.03652 280 ft 94 kts 22°
2026-05-06 19:54 -34.66338 -59.03293 555 ft 92 kts 29°
2026-05-06 19:54 -34.65754 -59.02886 687 ft 105 kts 26°
2026-05-06 19:54 -34.65151 -59.02288 821 ft 120 kts 44°
2026-05-06 19:55 -34.64690 -59.01395 941 ft 131 kts 61°
2026-05-06 19:55 -34.64226 -59.00321 890 ft 157 kts 60°
2026-05-06 19:55 -34.63721 -58.99141 996 ft 159 kts 62°
2026-05-06 19:55 -34.63268 -58.98027 1497 ft 121 kts 66°
2026-05-06 19:56 -34.62932 -58.97094 1519 ft 128 kts 69°
2026-05-06 19:56 -34.62555 -58.95975 1212 ft 156 kts 72°
2026-05-06 19:56 -34.62148 -58.94766 1222 ft 153 kts 71°
2026-05-06 19:56 -34.61804 -58.93633 1518 ft 123 kts 63°
2026-05-06 19:57 -34.61593 -58.92706 1703 ft 112 kts 66°
2026-05-06 19:57 -34.61438 -58.91838 1906 ft 100 kts 76°
2026-05-06 19:57 -34.61305 -58.90985 1960 ft 104 kts 78°
2026-05-06 19:57 -34.61174 -58.90131 2080 ft 101 kts 77°
2026-05-06 19:58 -34.61051 -58.89327 2226 ft 97 kts 70°
2026-05-06 19:58 -34.60920 -58.88506 2218 ft 99 kts 69°
2026-05-06 19:58 -34.60771 -58.87676 2136 ft 100 kts 72°
2026-05-06 19:58 -34.60593 -58.86861 2070 ft 100 kts 72°
2026-05-06 19:59 -34.60376 -58.86045 1949 ft 106 kts 70°
2026-05-06 19:59 -34.60122 -58.85226 1943 ft 100 kts 68°
2026-05-06 19:59 -34.59848 -58.84438 1874 ft 102 kts 64°
2026-05-06 19:59 -34.59562 -58.83674 1846 ft 99 kts 62°
2026-05-06 20:00 -34.59264 -58.82919 1785 ft 99 kts 59°
2026-05-06 20:00 -34.58957 -58.82186 1779 ft 94 kts 62°
2026-05-06 20:00 -34.58619 -58.81449 1778 ft 110 kts 60°
2026-05-06 20:00 -34.58203 -58.80603 1807 ft 123 kts 59°
2026-05-06 20:01 -34.57872 -58.79960 1856 ft 126 kts 59°
2026-05-06 20:01 -34.57508 -58.79275 1907 ft 131 kts 59°
2026-05-06 20:01 -34.56993 -58.78311 1904 ft 137 kts 59°
2026-05-06 20:01 -34.56489 -58.77349 2007 ft 136 kts 59°
2026-05-06 20:02 -34.56002 -58.76369 2128 ft 133 kts 58°
2026-05-06 20:02 -34.55572 -58.75428 2305 ft 126 kts 52°
2026-05-06 20:02 -34.55163 -58.74440 2294 ft 135 kts 56°
2026-05-06 20:02 -34.54762 -58.73398 2311 ft 139 kts 56°
2026-05-06 20:03 -34.54364 -58.72294 2288 ft 142 kts 59°
2026-05-06 20:03 -34.54004 -58.71208 2337 ft 142 kts 58°
2026-05-06 20:03 -34.53648 -58.70050 2319 ft 146 kts 60°
2026-05-06 20:03 -34.53320 -58.68890 2353 ft 146 kts 61°
2026-05-06 20:04 -34.53015 -58.67710 2351 ft 149 kts 62°
2026-05-06 20:04 -34.52684 -58.66524 2352 ft 145 kts 53°
2026-05-06 20:04 -34.52029 -58.65709 2215 ft 143 kts 27°
2026-05-06 20:04 -34.51043 -58.65396 2013 ft 156 kts 13°
2026-05-06 20:05 -34.49967 -58.65140 1966 ft 154 kts 22°
2026-05-06 20:05 -34.49104 -58.64459 1937 ft 145 kts 47°
2026-05-06 20:05 -34.48524 -58.63505 1759 ft 131 kts 53°
2026-05-06 20:05 -34.48102 -58.62563 1386 ft 123 kts 53°
2026-05-06 20:06 -34.47678 -58.61734 1147 ft 108 kts 45°
2026-05-06 20:06 -34.47314 -58.61169 1128 ft 69 kts 38°
2026-05-06 20:06 -34.47007 -58.60807 839 ft 64 kts 34°
2026-05-06 20:06 -34.46632 -58.60485 498 ft 67 kts 42°
2026-05-06 20:07 -34.46282 -58.60082 221 ft 76 kts 48°
2026-05-06 20:07 -34.45910 -58.59635 65 ft 70 kts 46°
2026-05-06 20:07 -34.45630 -58.59302 13 ft 41 kts 46°
2026-05-06 20:07 -34.45479 -58.59120 13 ft 24 kts 49°
2026-05-06 20:08 -34.45343 -58.58955 13 ft 31 kts 44°
2026-05-06 20:08 -34.45176 -58.58757 13 ft 36 kts 46°
2026-05-06 20:08 -34.44985 -58.58544 13 ft 38 kts 46°
2026-05-06 20:08 -34.44873 -58.58393 13 ft 8 kts 64°
2026-05-06 20:09 -34.44912 -58.58236 13 ft 30 kts 128°
2026-05-06 20:09 -34.44957 -58.58167 13 ft 0 kts 135°
2026-05-06 20:10 -34.44957 -58.58166 13 ft 0 kts 135°